Portes du Soleil, France 16 day weather forecast

Slopes altitude range 950 m - 2300m

Number of lifts: 197 Pistes: 650km

In some cases the lift and piste totals shown are for the ski domain (e.g. Three Valleys) rather than individual resort (e.g. Courchevel)

Overview

The 16 day weather forecast is fully updated 4 times every day.

    • Sun 16 JUN 2019
    • Sun 16
    • 5C 12C
    • Mon 17 JUN 2019
    • Mon 17
    • 10C 18C
    • Tue 18 JUN 2019
    • Tue 18
    • 11C 15C
    • Wed 19 JUN 2019
    • Wed 19
    • 11C 18C
    • Thu 20 JUN 2019
    • Thu 20
    • 11C 15C
    • Fri 21 JUN 2019
    • Fri 21
    • 9C 14C
    • Sat 22 JUN 2019
    • Sat 22
    • 8C 12C
    • Sun 23 JUN 2019
    • Sun 23
    • 9C 15C
    • Mon 24 JUN 2019
    • Mon 24
    • 13C 20C
    • Tue 25 JUN 2019
    • Tue 25
    • 16C 23C
    • Wed 26 JUN 2019
    • Wed 26
    • 4C 6C
    • Thu 27 JUN 2019
    • Thu 27
    • 5C 6C
    • Fri 28 JUN 2019
    • Fri 28
    • 10C 13C
    • Sat 29 JUN 2019
    • Sat 29
    • 12C 17C
    • Sun 30 JUN 2019
    • Sun 30
    • 12C 17C
    • Mon 01 JUL 2019
    • Mon 01
    • 11C 16C

Date:

Time Type 0°C level Temp Chill Snow Cloud Speed Gust Dir Press
12:00 3524m 12°C 12_6 0cm 42% 6mph 4mph 1019mB
15:00 3362m 13°C 13_8 0cm 22% 8mph 6mph 1017mB
18:00 3765m 13°C 13_6 0cm 41% 6mph 7mph 1018mB
21:00 3944m 5°C 5_2 0cm 52% 2mph 3mph 1020mB
0:00 3853m 5°C 5_4 0cm 59% 4mph 5mph 1020mB
3:00 3849m 4°C 4_4 0cm 41% 4mph 5mph 1019mB
6:00 3817m 4°C 4_4 0cm 22% 4mph 5mph 1019mB
9:00 3715m 10°C 10_1 0cm 0% 1mph 4mph 1018mB
12:00 3688m 18°C 18_3 0cm 12% 3mph 2mph 1017mB
15:00 3787m 17°C 17_4 0cm 96% 4mph 3mph 1016mB
18:00 3780m 17°C 17_2 0cm 98% 2mph 3mph 1016mB
21:00 3850m 9°C 9_1 0cm 100% 1mph 2mph 1017mB
0:00 3755m 7°C 7_5 0cm 99% 5mph 5mph 1018mB
3:00 3685m 7°C 7_5 0cm 42% 5mph 6mph 1017mB
6:00 3698m 7°C 7_4 0cm 37% 4mph 5mph 1017mB
9:00 3753m 11°C 11_2 0cm 91% 2mph 4mph 1016mB
12:00 3749m 15°C 15_4 0cm 96% 4mph 4mph 1015mB
15:00 3746m 15°C 15_4 0cm 84% 4mph 5mph 1014mB
18:00 3736m 15°C 15_3 0cm 42% 3mph 4mph 1014mB
21:00 3700m 7°C 7_3 0cm 0% 3mph 4mph 1016mB
0:00 3768m 7°C 7_5 0cm 0% 5mph 6mph 1015mB
3:00 3707m 6°C 6_6 0cm 59% 6mph 7mph 1014mB
6:00 3677m 6°C 6_6 0cm 41% 6mph 6mph 1014mB
9:00 3663m 11°C 11_3 0cm 24% 3mph 7mph 1013mB
12:00 3743m 18°C 18_5 0cm 39% 5mph 7mph 1011mB
15:00 3670m 18°C 18_3 0cm 100% 3mph 4mph 1011mB
18:00 3701m 18°C 18_2 0cm 81% 2mph 3mph 1012mB
21:00 3726m 8°C 8_2 0cm 100% 2mph 2mph 1014mB
0:00 3679m 7°C 7_3 0cm 99% 3mph 3mph 1014mB
3:00 3691m 7°C 7_3 0cm 100% 3mph 4mph 1014mB
6:00 3652m 7°C 7_3 0cm 100% 3mph 4mph 1014mB
9:00 3613m 11°C 11_4 0cm 67% 4mph 6mph 1013mB
12:00 3552m 15°C 15_6 0cm 64% 6mph 7mph 1013mB
15:00 3479m 14°C 14_4 0cm 100% 4mph 5mph 1013mB
18:00 3531m 14°C 14_4 0cm 100% 4mph 4mph 1014mB
21:00 3433m 8°C 8_4 0cm 95% 4mph 5mph 1016mB
0:00 3469m 6°C 6_4 0cm 62% 4mph 5mph 1016mB
3:00 3475m 5°C 5_4 0cm 40% 4mph 5mph 1016mB
6:00 3444m 5°C 5_1 0cm 27% 1mph 1mph 1016mB
9:00 3500m 9°C 9_3 0cm 34% 3mph 4mph 1015mB
12:00 3591m 14°C 14_5 0cm 51% 5mph 4mph 1015mB
15:00 3502m 13°C 13_5 0cm 100% 5mph 5mph 1014mB
18:00 3579m 13°C 13_4 0cm 99% 4mph 5mph 1015mB
21:00 3480m 8°C 8_3 0cm 100% 3mph 3mph 1017mB
0:00 3429m 8°C 8_4 0cm 100% 4mph 4mph 1017mB
3:00 3330m 7°C 7_2 0cm 100% 2mph 2mph 1016mB
6:00 3299m 7°C 7_2 0cm 100% 2mph 3mph 1017mB
9:00 3411m 8°C 8_4 0cm 91% 4mph 3mph 1016mB
12:00 3508m 12°C 12_5 0cm 70% 5mph 5mph 1015mB
15:00 3536m 13°C 13_5 0cm 4% 5mph 5mph 1014mB
18:00 3506m 13°C 13_4 0cm 2% 4mph 4mph 1015mB
21:00 3465m 6°C 6_5 0cm 38% 5mph 6mph 1016mB
0:00 3375m 5°C 5_6 0cm 50% 6mph 7mph 1017mB
3:00 3273m 5°C 5_5 0cm 90% 5mph 6mph 1016mB
6:00 3365m 4°C 4_4 0cm 53% 4mph 4mph 1017mB
9:00 3296m 9°C 9_5 0cm 67% 5mph 5mph 1017mB
12:00 3504m 15°C 15_5 0cm 81% 5mph 6mph 1015mB
15:00 3525m 16°C 16_6 0cm 64% 6mph 6mph 1015mB
18:00 3619m 16°C 16_4 0cm 74% 4mph 5mph 1016mB
21:00 3814m 7°C 7_2 0cm 23% 2mph 3mph 1018mB
0:00 4082m 7°C 7_5 0cm 53% 5mph 6mph 1018mB
3:00 4184m 7°C 7_5 0cm 61% 5mph 6mph 1018mB
6:00 4311m 7°C 7_4 0cm 61% 4mph 4mph 1018mB
9:00 4413m 13°C 13_3 0cm 57% 3mph 5mph 1017mB
12:00 4464m 20°C 20_5 0cm 78% 5mph 7mph 1016mB
15:00 4419m 20°C 20_5 0cm 0% 5mph 5mph 1015mB
18:00 4448m 20°C 20_3 0cm 0% 3mph 4mph 1016mB
21:00 4504m 11°C 11_6 0cm 0% 6mph 7mph 1018mB
0:00 4490m 11°C 11_5 0cm 0% 5mph 6mph 1019mB
3:00 4426m 10°C 10_5 0cm 0% 5mph 6mph 1018mB
6:00 4419m 10°C 10_5 0cm 0% 5mph 6mph 1017mB
9:00 4410m 16°C 16_3 0cm 0% 3mph 6mph 1017mB
12:00 4307m 23°C 23_6 0cm 0% 6mph 10mph 1016mB
15:00 4304m 23°C 23_6 0cm 0% 6mph 13mph 1015mB
18:00 4377m 23°C 23_4 0cm 18% 4mph 5mph 1016mB
21:00 4285m 10°C 10_3 0cm 74% 3mph 4mph 1018mB
0:00 4150m 9°C 9_2 0cm 66% 2mph 3mph 1018mB
3:00 4007m 10°C 10_4 0cm 100% 4mph 4mph 1018mB
6:00 3793m 9°C 9_5 0cm 100% 5mph 5mph 1017mB
Afternoon 0.25mm 0.6875 2564m 6°C 6_5 0cm 98% 5mph 5mph 1017mB
Morning 0.166667mm 0.5 2300m 1°C 1_5 4cm 95% 5mph 5mph 1017mB
Afternoon 0.0833333mm 0.25 2519m 6°C 6_6 2cm 86% 6mph 7mph 1018mB
Morning 0mm 0 3344m -1°C -1_4 0cm 22% 4mph 5mph 1021mB
Afternoon 0mm 0 3883m 13°C 13_5 0cm 12% 5mph 5mph 1018mB
Morning 0mm 0 3892m 3°C 3_2 0cm 0% 2mph 2mph 1018mB
Afternoon 0mm 0 3906m 17°C 17_5 0cm 64% 5mph 5mph 1014mB
Morning 0mm 0 4151m 3°C 3_1 0cm 0% 1mph 1mph 1013mB
Afternoon 0mm 0 4159m 17°C 17_5 0cm 34% 5mph 4mph 1010mB
Morning 0mm 0 3883m 5°C 5_1 0cm 8% 1mph 1mph 1010mB
Afternoon 0.354167mm 1.0625 3638m 16°C 16_5 0cm 77% 5mph 5mph 1010mB
Morning 0.0833333mm 0.25 3515m 6°C 6_4 0cm 92% 4mph 4mph 1013mB

16 day outlook at a glance

Forecast issued: 6/16/2019 2:33:53 PM

Chat

Your comments and questions. In a resort? Let us know what it's like!


Characters left 250

For terms and conditions see Readers Comments on the Cookie and privacy policy page.